Location: Coatesville
(39.9830°N, 75.8240°W)
Time: 09:48:12
(UTC-05:00)

LightSail 2 - Visible Passes

Search period start: 14 November 2019 00:00
Search period end: 24 November 2019 00:00
Orbit: 701 x 726 km, 24.0° (Epoch: 13 November)

Date Brightness Start Highest point End Pass type
(mag) Time Alt. Az. Time Alt. Az. Time Alt. Az.
14 Nov 7.6 04:05:00 12° SSE 04:05:00 12° SSE 04:06:19 10° SSE visible
14 Nov 7.5 05:47:00 10° SSW 05:48:41 11° S 05:50:22 10° S visible
15 Nov 7.4 04:49:43 11° SSW 04:51:01 12° S 04:53:10 10° SSE visible
16 Nov 7.8 03:55:27 11° SSE 03:55:27 11° SSE 03:55:40 10° SSE visible
17 Nov 7.5 04:40:08 11° SSW 04:40:19 11° S 04:41:20 10° S visible
